Location: El Bakhil
(32.7726°N, 5.5387°W)
Time: 21:51:16
(UTC+00:00)

N. Korean satellite - Pass Details

Date: 06 December 2021
Orbit: 447 x 490 km, 97.3° (Epoch: 27 January)

Event Time Altitude Azimuth Distance (km) Brightness Sun altitude
Rises 05:31:00 0° 11° (N) 2,451 10.1 -20.5°
Reaches altitude 10° 05:33:02 10° 11° (NNE) 1,576 9.1 -20.0°
Maximum altitude 05:36:24 89° 76° (ENE) 452 6.3 -19.4°
Drops below altitude 10° 05:39:46 10° 192° (SSW) 1,570 9.2 -18.7°
Sets 05:41:48 0° 192° (SSW) 2,442 10.2 -18.3°
